This is the latest recevied weather packets stored in our database for station/object KP4FJC. If no packets are shown the sender has not sent any weather packets the latest 10 day(s).
| Time | Temp. | Humidity | Pressure | Rain* | Wind** | Luminosity | Snow |
|---|---|---|---|---|---|---|---|
| 1777982225 | 27.78° C | 82% | 1018.4 hPa | 0 mm | - | 161 W/m² | - |
| 1777981923 | 27.78° C | 83% | 1018.1 hPa | 0 mm | - | 258 W/m² | - |
| 1777981620 | 27.78° C | 82% | 1018.4 hPa | 0 mm | - | 223 W/m² | - |
| 1777981316 | 27.22° C | 83% | 1018.2 hPa | 0 mm | - | 206 W/m² | - |
| 1777981013 | 27.78° C | 82% | 1018.2 hPa | 0 mm | - | 186 W/m² | - |
| 1777980709 | 27.78° C | 81% | 1018.4 hPa | 0 mm | - | 171 W/m² | - |
| 1777980405 | 27.78° C | 82% | 1018.2 hPa | 0 mm | - | 153 W/m² | - |
| 1777980104 | 27.22° C | 83% | 1018.2 hPa | 0 mm | - | 135 W/m² | - |
| 1777979803 | 26.67° C | 83% | 1018.1 hPa | 0 mm | - | 119 W/m² | - |
| 1777979499 | 26.11° C | 84% | 1018 hPa | 0 mm | - | 108 W/m² | - |
| 1777979195 | 26.11° C | 83% | 1018.1 hPa | 0 mm | - | 95 W/m² | - |
| 1777978893 | 26.67° C | 83% | 1018.2 hPa | 0 mm | - | 84 W/m² | - |
| 1777978589 | 25.56° C | 87% | 1018.2 hPa | 0 mm | - | 75 W/m² | - |
| 1777978285 | 25° C | 90% | 1018.2 hPa | 0 mm | - | 68 W/m² | - |
| 1777977982 | 24.44° C | 91% | 1018.1 hPa | 0 mm | - | 63 W/m² | - |
| 1777977680 | 23.89° C | 91% | 1018.1 hPa | 0 mm | - | 52 W/m² | - |
| 1777977376 | 23.89° C | 92% | 1017.9 hPa | 0 mm | - | 42 W/m² | - |
| 1777977074 | 23.89° C | 92% | 1017.7 hPa | 0 mm | - | 34 W/m² | - |
| 1777976771 | 23.33° C | 92% | 1017.7 hPa | 0 mm | - | 29 W/m² | - |
| 1777976468 | 23.33° C | 92% | 1017.6 hPa | 0 mm | - | 24 W/m² | - |
| 1777976167 | 23.33° C | 93% | 1017.6 hPa | 0 mm | - | 19 W/m² | - |
| 1777975863 | 23.33° C | 93% | 1017.4 hPa | 0 mm | - | 14 W/m² | - |
| 1777975559 | 23.33° C | 93% | 1017.3 hPa | 0 mm | - | 10 W/m² | - |
| 1777975256 | 23.33° C | 93% | 1017.5 hPa | 0 mm | - | 6 W/m² | - |
| 1777974952 | 23.33° C | 93% | 1017.2 hPa | 0 mm | - | 3 W/m² | - |
* Rain latest hour (hover to see other rain measurements)
** Current wind speed in m/s (hover to see current wind gust speed)